DO8TBO-15 Weather Reports


Display with metric or nautical units.
time (UTC)temp
F
wind
direction
speed
MPH
gust
MPH
rain 1hr
in
rain 24hr
in
rain mn
in
humidity
%
barometer
mb
20260508010551 47 0.0 0.0 0.00 0.26 0.00 1017.1
20260508005548 47 0.0 0.0 0.00 0.26 0.00 1017.2
20260508004544 47 0.0 1.0 0.00 0.27 0.00 1017.2
20260508003541 47 0.0 0.0 0.00 0.27 0.00 1017.2
20260508002537 48 0.0 0.0 0.00 0.27 0.00 1017.1
20260508001533 48 0.0 0.0 0.00 0.27 0.00 1017.1
20260508000529 48 0.0 0.0 0.00 0.27 0.00 1017.2
20260507235526 48 0.0 0.0 0.00 0.27 0.00 1017.3
20260507234522 48 0.0 0.0 0.00 0.27 0.00 1017.2
20260507233518 48 0.0 0.0 0.00 0.27 0.00 1017.2
20260507232615 48 0.0 0.0 0.00 0.27 0.00 1017.2
20260507231610 48 0.0 0.0 0.00 0.27 0.00 1017.2
20260507230607 48 0.0 0.0 0.00 0.27 0.00 1017.2
20260507225603 48 0.0 0.0 0.00 0.27 0.00 1017.1
20260507224600 48 0.0 0.0 0.00 0.27 0.00 1017.1
20260507223555 48 0.0 2.0 0.00 0.27 0.00 1017.1
20260507222551 48 0.0 2.0 0.00 0.27 0.00 1017.1
20260507221548 48 0.0 1.0 0.00 0.27 0.00 1017.0
20260507220544 49 0.0 0.0 0.00 0.27 0.00 1017.0
20260507215541 49 0.0 2.0 0.00 0.27 0.27 1017.0
20260507214537 49 45 1.0 6.0 0.00 0.27 0.27 1016.9
20260507213533 49 40 1.0 5.0 0.00 0.27 0.27 1016.9
20260507212530 49 72 1.0 4.0 0.00 0.27 0.27 1017.0
20260507211526 49 45 0.0 3.0 0.00 0.27 0.27 1017.0
20260507210523 49 0.0 1.0 0.00 0.27 0.27 1017.0
20260507205519 49 0.0 0.0 0.01 0.27 0.27 1016.9
20260507204615 49 0.0 1.0 0.01 0.27 0.27 1016.7
20260507203611 49 0.0 0.0 0.01 0.27 0.27 1016.7
20260507202607 49 90 0.0 3.0 0.01 0.27 0.27 1016.7
20260507201604 49 0.0 3.0 0.01 0.27 0.27 1016.6
20260507200559 49 0.0 2.0 0.01 0.27 0.27 1016.5
20260507195556 49 0.0 1.0 0.00 0.26 0.26 1016.5
20260507194552 50 0.0 2.0 0.00 0.26 0.26 1016.3
20260507193548 50 45 0.0 2.0 0.00 0.26 0.26 1016.3
20260507192544 50 9 1.0 3.0 0.00 0.26 0.26 1016.1
20260507191541 50 10 1.0 4.0 0.00 0.26 0.26 1015.9
20260507190538 50 0.0 0.0 0.00 0.26 0.26 1015.7
20260507185534 51 35 1.0 5.0 0.00 0.26 0.26 1015.5
20260507184530 51 35 0.0 5.0 0.00 0.26 0.26 1015.4
20260507183526 51 0.0 0.0 0.00 0.26 0.26 1015.2
20260507182523 51 0.0 0.0 0.00 0.26 0.26 1015.1
20260507181518 51 0.0 1.0 0.00 0.26 0.26 1015.1
20260507180616 51 0.0 2.0 0.00 0.26 0.26 1015.0
20260507175611 52 334 0.0 3.0 0.00 0.26 0.26 1014.8
20260507174608 52 245 1.0 6.0 0.00 0.26 0.26 1014.8
20260507173604 53 0.0 2.0 0.00 0.26 0.26 1014.8
20260507172600 53 0.0 2.0 0.00 0.26 0.26 1014.8
20260507171556 53 0.0 2.0 0.00 0.26 0.26 1014.6
20260507170553 53 0.0 0.0 0.00 0.26 0.26 1014.6
20260507165550 53 0.0 1.0 0.00 0.26 0.26 1014.5
20260507164546 54 0.0 2.0 0.00 0.26 0.26 1014.5
20260507163541 54 0.0 2.0 0.00 0.26 0.26 1014.4
20260507162538 54 90 0.0 4.0 0.00 0.26 0.26 1014.3
20260507161534 54 180 0.0 3.0 0.00 0.26 0.26 1014.3
20260507160531 53 0.0 0.0 0.00 0.26 0.26 1014.2
20260507155526 53 180 1.0 4.0 0.00 0.26 0.26 1014.2
20260507154522 53 225 1.0 4.0 0.00 0.26 0.26 1014.3
20260507153519 53 225 0.0 2.0 0.00 0.26 0.26 1014.2
20260507152616 53 0.0 0.0 0.00 0.26 0.26 1014.1
20260507151611 53 0.0 0.0 0.00 0.26 0.26 1014.1
20260507150608 53 225 1.0 3.0 0.00 0.26 0.26 1014.1
20260507145603 53 225 1.0 3.0 0.00 0.26 0.26 1014.1
20260507144559 53 273 1.0 4.0 0.00 0.26 0.26 1014.1
20260507143556 53 0.0 2.0 0.00 0.26 0.26 1014.0
20260507142552 53 225 0.0 3.0 0.00 0.26 0.26 1014.0
20260507141548 53 270 1.0 4.0 0.00 0.26 0.26 1013.9
20260507140544 53 270 2.0 4.0 0.00 0.26 0.26 1014.0
20260507135540 53 168 1.0 7.0 0.00 0.26 0.26 1014.0
20260507134537 53 225 0.0 4.0 0.00 0.26 0.26 1014.0
20260507133534 53 253 1.0 5.0 0.00 0.26 0.26 1013.9
20260507132530 52 0.0 0.0 0.00 0.26 0.26 1013.9
20260507131525 52 254 1.0 4.0 0.00 0.26 0.26 1013.9
20260507130522 53 225 2.0 4.0 0.00 0.26 0.26 1013.8
20260507125518 52 213 1.0 4.0 0.00 0.26 0.26 1013.7
20260507124615 52 277 1.0 5.0 0.00 0.26 0.26 1013.6
20260507123611 52 288 1.0 5.0 0.00 0.26 0.26 1013.6
20260507122608 53 293 0.0 2.0 0.00 0.26 0.26 1013.5
20260507121604 52 243 1.0 5.0 0.00 0.26 0.26 1013.3
20260507120600 52 203 1.0 2.0 0.00 0.26 0.26 1013.2
20260507115556 53 68 0.0 4.0 0.00 0.26 0.26 1013.2
20260507114552 53 0 1.0 4.0 0.00 0.26 0.26 1013.3
20260507113548 53 315 1.0 5.0 0.00 0.26 0.26 1013.1
20260507112545 53 192 1.0 4.0 0.00 0.26 0.26 1013.0
20260507111541 52 45 0.0 4.0 0.00 0.26 0.26 1012.9
20260507110537 52 270 2.0 4.0 0.00 0.26 0.26 1012.9
20260507105533 52 225 0.0 4.0 0.00 0.26 0.26 1012.9
20260507104559 53 239 1.0 4.0 0.00 0.26 0.26 1012.8
20260507103556 54 353 1.0 5.0 0.00 0.26 0.26 1012.7
20260507102552 54 297 1.0 5.0 0.00 0.26 0.26 1012.7
20260507101548 54 225 0.0 3.0 0.00 0.26 0.26 1012.5
20260507100544 53 0.0 1.0 0.00 0.26 0.26 1012.5
20260507095540 53 344 1.0 4.0 0.00 0.26 0.26 1012.5
20260507094536 52 198 0.0 5.0 0.00 0.26 0.26 1012.3
20260507093532 52 257 1.0 5.0 0.00 0.26 0.26 1012.3
20260507092529 52 222 1.0 3.0 0.00 0.26 0.26 1012.1
20260507091525 53 0 0.0 3.0 0.00 0.26 0.26 1011.9
20260507090521 53 270 2.0 3.0 0.01 0.26 0.26 1011.8
20260507085517 53 315 0.0 4.0 0.01 0.26 0.26 1011.7
20260507084614 52 337 0.0 4.0 0.01 0.26 0.26 1011.5
20260507083610 52 0.0 2.0 0.01 0.26 0.26 1011.5
20260507082606 51 118 1.0 5.0 0.01 0.26 0.26 1011.3
20260507081603 51 135 0.0 7.0 0.01 0.26 0.26 1011.3
20260507080559 51 270 2.0 4.0 0.00 0.25 0.25 1011.1
20260507075555 51 277 1.0 6.0 0.00 0.25 0.25 1011.0
20260507074552 51 271 0.0 4.0 0.00 0.25 0.25 1010.9
20260507073547 51 270 0.0 4.0 0.00 0.25 0.25 1010.7
20260507072544 51 270 0.0 4.0 0.00 0.25 0.25 1010.6
20260507071541 51 315 0.0 4.0 0.00 0.25 0.25 1010.5
20260507070537 51 225 1.0 2.0 0.00 0.25 0.25 1010.4
20260507065533 51 243 1.0 6.0 0.00 0.25 0.25 1010.4
20260507064529 52 319 1.0 7.0 0.00 0.25 0.25 11 1010.3
20260507063525 52 0.0 2.0 0.00 0.25 0.25 12 1010.1
20260507062521 52 291 0.0 4.0 0.00 0.25 0.25 15 1010.1
20260507061517 52 49 1.0 4.0 0.00 0.25 0.25 19 1009.9
20260507060613 52 0.0 0.0 0.00 0.25 0.25 21 1009.7
20260507055610 52 0.0 2.0 0.01 0.25 0.25 21 1009.6
20260507054607 51 0.0 2.0 0.01 0.25 0.25 22 1009.5
20260507053603 52 135 0.0 5.0 0.05 0.25 0.25 23 1009.4
20260507052559 51 0.0 3.0 0.07 0.25 0.25 24 1009.3
20260507051555 52 326 0.0 4.0 0.11 0.25 0.25 25 1009.2
20260507050551 52 225 1.0 4.0 0.11 0.25 0.25 24 1009.1
20260507045547 52 246 1.0 4.0 0.09 0.24 0.24 23 1009.0
20260507044544 52 180 0.0 2.0 0.11 0.24 0.24 20 1009.0
20260507043541 52 0.0 0.0 0.07 0.20 0.20 19 1008.8
20260507042536 52 0.0 1.0 0.05 0.18 0.18 17 1008.6
20260507041533 52 0.0 2.0 0.01 0.14 0.14 15 1008.5
20260507040529 52 0.0 0.0 0.01 0.14 0.14 13 1008.4
20260507035526 52 0.0 0.0 0.01 0.14 0.14 11 1008.3
20260507034522 52 180 0.0 4.0 0.00 0.13 0.13 10 1008.2
20260507033518 52 180 0.0 4.0 0.00 0.13 0.13 10 1008.2
20260507032614 52 0.0 1.0 0.00 0.13 0.13 10 1008.1
20260507031610 52 0.0 2.0 0.01 0.13 0.13 10 1008.0
20260507030606 52 0.0 0.0 0.02 0.13 0.13 10 1007.9
20260507025602 52 225 0.0 3.0 0.04 0.13 0.13 1007.9
20260507024559 52 225 0.0 4.0 0.06 0.13 0.13 1007.8
20260507023556 52 0.0 3.0 0.07 0.13 0.13 1007.8
20260507022552 52 235 1.0 5.0 0.08 0.13 0.13 1007.8
20260507021548 52 241 2.0 8.0 0.08 0.12 0.12 1007.6
20260507020544 53 0.0 2.0 0.09 0.11 0.11 1007.6
20260507015540 53 225 1.0 4.0 0.08 0.09 0.09 1007.7
20260507014536 53 284 2.0 8.0 0.07 0.08 0.07 1007.6
20260507013532 53 198 2.0 7.0 0.06 0.07 0.06 1007.5
20260507012528 53 315 0.0 4.0 0.05 0.06 0.05 1007.5
20260507011524 54 212 1.0 4.0 0.04 0.05 0.04 1007.5